Home > Weather > Gran > Past weeks

Flag for Norway Past Weather in Gran, Norway — Yesterday and Last 2 Weeks

Now
57 °F

Rain showers. Scattered clouds.


Feels Like: 55 °F
Forecast: 46 / 61 °F
Wind: 12 mph from Southwest

Location: Oslo Gardermoen Airport

Current Time: Jun 30, 2016 at 9:39:40 PM

Latest Report: Jun 30, 2016 at 8:50 PM


Visibility: N/A

Pressure: 29.68 "Hg

Humidity: 72%

Dew Point: 48 °F

Location of GranLocation

Past Weather in Gran — Graph

°F

Gran Temperature Yesterday

Maximum temperature yesterday: 64 °F (at 12:50 PM)
Minimum temperature yesterday: 50 °F (at 3:20 AM)
Average temperature yesterday: 57 °F

High & Low Weather Summary for the Past Weeks

 TemperatureHumidityPressure
High75 °F (Jun 25, 3:20 PM)94% (Jun 15, 8:50 PM)30.15 "Hg (Jun 15, 8:50 PM)
Low48 °F (Jun 19, 3:50 AM)29% (Jun 16, 6:50 PM)29.56 "Hg (Jun 16, 5:20 PM)
Average60 °F71%29.82 "Hg
* Reported Jun 15 7:20 PM — Jun 30 7:50 PM, Gran, Weather by CustomWeather, © 2016

Note: Actual official high and low records may vary slightly from our data, if they occured in-between our weather recording intervals... More about our weather records

Advertising

Gran Weather History for the Previous 24 Hours

Scroll right to see more
 ConditionsComfort  
Time TempWeatherWind HumidityBarometerVisibility
7:50 PM
Thu, Jun 30
61 °FScattered showers. Scattered clouds.20 mph63%29.68 "HgN/A
7:20 PM61 °FScattered clouds.18 mph59%29.68 "HgN/A
6:50 PM61 °FPartly sunny.18 mph59%29.65 "HgN/A
6:20 PM61 °FBroken clouds.13 mph72%29.65 "HgN/A
5:50 PM59 °FScattered clouds.17 mph72%29.65 "HgN/A
5:20 PM59 °FBroken clouds.16 mph77%29.65 "HgN/A
4:50 PM59 °FPartly sunny.13 mph82%29.65 "HgN/A
4:20 PM59 °FBroken clouds.12 mph77%29.65 "HgN/A
3:50 PM59 °FPartly sunny.17 mph82%29.68 "HgN/A
3:20 PM57 °FRain showers. Broken clouds.14 mph88%29.68 "Hg5 mi
2:50 PM57 °FSprinkles. Partly sunny.15 mph88%29.68 "Hg6 mi
2:20 PM55 °FSprinkles. Partly sunny.14 mph94%29.68 "Hg5 mi
1:50 PM55 °FSprinkles. Overcast.17 mph94%29.68 "Hg6 mi
1:20 PM55 °FSprinkles. Broken clouds.15 mph94%29.68 "Hg6 mi
12:50 PM55 °FSprinkles. Broken clouds.14 mph94%29.68 "HgN/A
12:20 PM54 °FSprinkles. Partly sunny.12 mph94%29.68 "HgN/A
11:50 AM54 °FLight rain. More clouds than sun.21 mph94%29.68 "HgN/A
11:20 AM54 °FSprinkles. More clouds than sun.12 mph94%29.68 "Hg2 mi
10:50 AM55 °FSprinkles. Partly sunny.14 mph88%29.68 "Hg5 mi
10:20 AM55 °FSprinkles. Broken clouds.17 mph88%29.68 "HgN/A
9:50 AM57 °FBroken clouds.13 mph82%29.68 "HgN/A
9:20 AM57 °FBroken clouds.13 mph88%29.68 "HgN/A
8:50 AM57 °FBroken clouds.12 mph88%29.68 "HgN/A
8:20 AM55 °FPartly sunny.13 mph94%29.68 "HgN/A
7:50 AM55 °FSprinkles. Broken clouds.10 mph94%29.68 "HgN/A
7:20 AM55 °FLight rain. Broken clouds.10 mph88%29.68 "HgN/A
6:50 AM55 °FLight rain. More clouds than sun.10 mph88%29.68 "HgN/A
6:20 AM55 °FBroken clouds.9 mph88%29.68 "HgN/A
5:50 AM55 °FPartly sunny.9 mph88%29.68 "HgN/A
5:20 AM55 °FLight rain. Partly sunny.8 mph88%29.71 "HgN/A
4:50 AM55 °FLight rain. Passing clouds.8 mph82%29.71 "HgN/A
4:20 AM55 °FPassing clouds.8 mph77%29.71 "HgN/A
3:50 AM55 °FPartly cloudy.8 mph77%29.71 "HgN/A
3:20 AM55 °FPassing clouds.7 mph77%29.71 "HgN/A
2:50 AM55 °FPassing clouds.3 mph77%29.74 "HgN/A
2:20 AM55 °FPartly cloudy.2 mph77%29.74 "HgN/A
1:50 AM55 °FClear.2 mph77%29.74 "Hg10 mi
1:20 AM54 °FClear.1 mph88%29.74 "Hg10 mi
12:50 AM55 °FClear.No wind77%29.74 "Hg10 mi
12:20 AM55 °FPassing clouds.1 mph77%29.74 "HgN/A
11:50 PM
Wed, Jun 29
55 °FPassing clouds.No wind77%29.77 "HgN/A
11:20 PM55 °FPassing clouds.5 mph82%29.77 "HgN/A
10:50 PM55 °FSprinkles. Partly sunny.No wind77%29.77 "HgN/A
10:20 PM55 °FSunny.No wind77%29.77 "Hg10 mi
9:50 PM57 °FSunny.2 mph72%29.77 "Hg10 mi
9:20 PM57 °FSunny.2 mph67%29.77 "Hg10 mi
Weather by CustomWeather, © 2016

See weather overviewHow to use our weather pages